Temp
12 12 10 11 11 11 11 11 10 10 10 9 9 9 8 8 8 6 6 6 6 6 5 5 5 5 3 4 3 4 3 2 3 2 2 2 1 2 1 1 2 1 1
12 12 11 11 11 11 10 10 10 10 10 9 8 8 8 8 8 8 8 8 8 5 5 5 5 4 4 3 3 3 3 2 2 2 2 1 1 2 1 1 1 1 1
11 11 11 11 11 10 10 10 10 9 9 9 8 8 8 8 8 8 8 8 7 8 6 4 5 5 4 3 3 3 2 2 2 2 2 1 1 1 1 1 1 1 0
11 11 12 12 11 11 10 10 10 9 9 8 8 8 8 8 8 8 8 8 8 7 8 7 5 5 4 4 3 2 2 2 1 2 1 1 1 0 1 0 0 -0 0
12 12 11 12 12 11 10 10 9 9 9 8 7 7 7 7 7 7 7 7 7 7 7 7 7 5 3 3 3 3 2 2 1 1 1 1 1 0 0 -0 -0 -0 -1
12 12 11 11 11 11 10 10 10 9 9 9 7 7 7 7 6 6 6 6 7 7 7 7 6 5 5 2 3 3 2 2 1 1 1 1 1 0 -0 -0 -1 -1 -1
12 12 12 11 11 11 11 10 10 9 8 8 8 7 6 6 5 5 5 6 6 6 7 7 6 6 5 5 2 2 2 2 1 1 1 0 -0 -0 -1 -1 -1 -1 -1
12 12 12 11 11 10 10 10 10 10 9 8 8 6 4 5 5 5 5 5 6 6 6 6 6 6 5 5 5 3 1 1 1 0 -0 -0 -0 -0 -1 -1 -1 -1 -1
12 12 12 12 11 11 11 10 10 11 10 9 9 8 6 7 4 5 5 5 6 5 6 6 6 6 6 5 5 4 4 3 1 1 -0 0 -1 -1 -1 -1 0 -1 -2
12 12 11 12 12 12 11 11 10 10 10 10 9 9 9 9 6 4 5 5 6 5 6 6 6 6 6 6 5 4 4 4 4 2 1 1 -0 -0 -1 0 1 1 0
12 12 12 12 11 11 11 11 10 11 10 10 10 10 9 9 9 8 5 6 6 6 6 6 6 6 6 6 5 4 4 3 3 3 3 2 2 2 1 2 2 2 2
13 12 12 12 12 11 11 11 11 11 10 9 10 10 10 10 10 9 9 7 6 7 6 6 6 6 6 6 6 5 4 3 3 3 3 2 2 2 2 2 2 2 1
13 13 13 13 12 12 11 11 10 10 10 10 10 10 10 9 9 9 9 9 8 7 7 7 7 6 6 6 6 5 4 4 3 3 3 2 2 2 2 2 2 2 2
14 14 13 13 13 12 11 11 10 10 10 10 10 10 10 9 9 9 9 9 8 8 8 8 7 7 7 6 6 6 5 5 4 4 3 2 2 2 2 2 2 2 2
14 14 14 13 13 12 12 11 11 10 10 10 10 10 9 9 9 9 9 9 9 9 9 9 8 8 7 7 6 6 5 5 5 4 3 2 2 2 2 1 1 2 1
14 14 14 13 13 13 12 11 11 11 10 10 10 10 9 9 9 9 9 9 9 8 8 9 9 8 7 7 7 6 5 5 4 4 3 3 2 2 1 1 1 1 2
14 14 14 14 13 13 12 11 11 11 10 10 10 9 9 9 9 9 9 9 9 8 8 9 8 8 8 7 7 6 5 5 4 4 3 3 2 2 1 0 0 1 1
14 14 14 14 13 13 12 11 11 11 11 10 10 10 9 9 9 9 9 9 9 8 8 8 8 8 8 7 6 6 6 5 4 4 3 3 2 2 1 1 1 1 1
15 14 14 14 13 13 12 11 11 11 11 10 10 10 9 9 9 9 9 9 8 8 8 8 8 8 8 7 7 6 6 5 5 4 3 3 3 2 2 1 1 1 1
14 14 14 14 13 13 12 11 11 11 11 10 10 10 9 9 9 9 9 8 8 8 8 8 8 8 7 8 7 6 6 6 5 4 4 4 3 3 3 2 1 1 1
13 14 14 13 13 12 12 12 11 12 11 11 10 10 9 9 9 9 8 8 8 8 8 8 8 8 8 8 8 7 6 5 5 4 4 4 4 3 4 3 2 2 1
13 12 13 13 13 12 13 12 12 12 11 11 11 10 10 9 9 8 8 8 8 8 8 8 8 9 9 8 8 7 6 6 5 5 5 5 4 5 4 4 3 3 2
12 12 12 13 13 13 13 12 12 11 11 11 11 10 10 9 9 8 8 8 8 8 8 8 8 8 8 8 7 7 6 6 6 5 4 4 4 5 4 4 4 4 3
12 11 12 13 13 13 13 12 12 11 11 10 10 10 10 9 9 8 8 8 8 8 9 8 8 8 7 8 7 7 6 5 5 5 4 4 5 5 5 5 5 4 4
11 11 12 13 13 13 13 12 11 10 10 10 10 10 9 9 9 8 8 8 8 8 9 8 8 8 8 8 7 7 6 5 5 6 5 4 5 5 5 6 5 5 5
11 11 12 13 13 14 13 12 11 10 10 10 10 10 10 9 9 9 8 8 8 9 9 8 8 8 7 7 7 6 5 5 5 5 5 4 5 4 4 6 6 5 4
Height
1591 1594 1597 1601 1603 1605 1606 1607 1608 1609 1611 1612 1613 1614 1616 1617 1617 1617 1618 1618 1619 1620 1619 1618 1617 1616 1615 1613 1612 1611 1610 1608 1607 1606 1604 1603 1601 1599 1598 1597 1596 1595 1592
1591 1594 1598 1601 1604 1607 1608 1609 1610 1611 1613 1614 1615 1616 1618 1618 1619 1620 1620 1620 1620 1620 1621 1620 1620 1619 1617 1616 1614 1613 1612 1611 1610 1609 1607 1605 1603 1602 1601 1600 1598 1596 1595
1592 1594 1598 1601 1604 1607 1609 1610 1611 1612 1615 1616 1617 1618 1619 1621 1621 1622 1622 1622 1622 1621 1620 1621 1622 1621 1620 1619 1617 1615 1614 1613 1613 1612 1610 1608 1606 1604 1603 1601 1599 1597 1596
1591 1594 1598 1601 1603 1607 1609 1611 1612 1613 1615 1618 1619 1620 1621 1622 1623 1623 1623 1623 1623 1622 1622 1621 1622 1622 1621 1620 1619 1618 1616 1615 1614 1612 1611 1609 1607 1606 1604 1602 1601 1599 1597
1590 1594 1597 1600 1602 1605 1609 1611 1612 1615 1616 1618 1620 1621 1622 1623 1624 1625 1625 1624 1624 1623 1622 1623 1622 1621 1622 1622 1621 1620 1618 1617 1615 1614 1613 1611 1609 1607 1605 1603 1602 1600 1598
1589 1593 1596 1599 1602 1604 1607 1610 1613 1615 1617 1618 1620 1622 1623 1625 1626 1626 1626 1625 1624 1624 1623 1623 1623 1623 1622 1622 1622 1621 1620 1618 1617 1616 1614 1613 1611 1608 1606 1604 1603 1601 1600
1587 1590 1593 1597 1600 1603 1605 1609 1611 1613 1615 1618 1619 1622 1624 1625 1626 1627 1627 1626 1625 1625 1623 1623 1623 1623 1623 1622 1621 1621 1620 1619 1617 1616 1614 1613 1611 1609 1607 1605 1604 1603 1601
1585 1588 1591 1594 1597 1600 1603 1607 1609 1611 1615 1616 1618 1622 1626 1628 1626 1626 1626 1626 1625 1625 1624 1623 1623 1623 1623 1622 1621 1620 1620 1619 1618 1616 1614 1613 1611 1609 1608 1606 1605 1603 1602
1581 1584 1588 1591 1594 1598 1601 1604 1607 1609 1611 1614 1617 1619 1623 1624 1625 1624 1624 1625 1625 1625 1624 1624 1623 1623 1623 1622 1621 1620 1619 1618 1617 1616 1615 1613 1613 1611 1609 1607 1605 1603 1602
1577 1581 1585 1588 1592 1595 1598 1601 1604 1607 1609 1611 1614 1616 1618 1619 1621 1624 1623 1623 1623 1623 1623 1623 1623 1623 1622 1621 1620 1619 1618 1618 1616 1615 1614 1613 1612 1611 1610 1607 1606 1604 1602
1572 1577 1581 1584 1588 1592 1595 1598 1601 1605 1607 1610 1611 1613 1616 1617 1617 1618 1619 1620 1621 1622 1622 1622 1621 1621 1621 1621 1619 1618 1618 1617 1616 1615 1614 1613 1612 1611 1610 1608 1607 1605 1603
1566 1571 1575 1579 1584 1587 1590 1594 1598 1602 1605 1607 1609 1612 1614 1615 1616 1617 1617 1617 1619 1620 1619 1619 1619 1619 1619 1619 1618 1618 1617 1616 1615 1615 1614 1613 1612 1611 1610 1608 1607 1606 1604
1559 1563 1569 1573 1577 1583 1587 1591 1595 1598 1601 1603 1605 1608 1612 1614 1615 1616 1616 1616 1617 1617 1617 1616 1617 1617 1616 1616 1616 1616 1615 1614 1614 1613 1612 1611 1611 1610 1609 1608 1605 1604 1603
1552 1557 1564 1568 1573 1577 1582 1586 1590 1593 1597 1599 1602 1605 1609 1611 1612 1614 1615 1615 1615 1615 1614 1614 1613 1613 1613 1614 1614 1614 1613 1612 1611 1611 1611 1610 1609 1609 1607 1606 1605 1603 1602
1545 1551 1558 1562 1568 1572 1577 1581 1585 1588 1592 1596 1599 1602 1605 1607 1609 1611 1612 1613 1614 1614 1612 1610 1610 1610 1610 1611 1611 1611 1610 1609 1609 1609 1609 1608 1607 1606 1605 1605 1604 1602 1601
1539 1545 1550 1556 1561 1566 1571 1576 1580 1584 1588 1591 1594 1597 1600 1603 1605 1607 1608 1609 1611 1611 1612 1608 1607 1607 1607 1607 1608 1608 1608 1608 1607 1606 1606 1606 1605 1604 1604 1603 1602 1600 1599
1531 1537 1543 1549 1554 1560 1565 1569 1574 1578 1582 1586 1589 1593 1596 1599 1601 1602 1604 1605 1606 1606 1607 1605 1604 1604 1604 1604 1604 1605 1605 1605 1604 1604 1604 1603 1603 1602 1603 1602 1601 1599 1597
1522 1530 1536 1542 1547 1553 1558 1563 1567 1572 1576 1579 1583 1588 1591 1594 1596 1598 1599 1600 1601 1602 1602 1602 1601 1600 1600 1601 1601 1601 1601 1601 1601 1600 1600 1601 1600 1599 1598 1597 1596 1594 1593
1514 1522 1528 1534 1539 1544 1550 1556 1561 1565 1570 1574 1578 1581 1585 1587 1590 1592 1594 1596 1596 1597 1597 1597 1597 1597 1597 1597 1597 1597 1597 1598 1597 1597 1596 1597 1596 1595 1594 1593 1592 1591 1590
1506 1514 1519 1525 1532 1537 1543 1549 1554 1558 1564 1568 1571 1575 1578 1581 1584 1587 1589 1590 1591 1591 1591 1591 1591 1593 1594 1593 1592 1592 1592 1592 1593 1593 1592 1592 1591 1590 1589 1589 1587 1586 1585
1498 1506 1512 1518 1524 1529 1535 1540 1546 1552 1557 1561 1565 1568 1571 1574 1578 1581 1583 1583 1584 1585 1585 1585 1585 1585 1586 1588 1588 1588 1587 1588 1588 1588 1588 1586 1586 1586 1584 1583 1582 1581 1580
1489 1497 1504 1510 1515 1521 1526 1532 1540 1544 1549 1553 1557 1561 1564 1568 1571 1574 1576 1578 1579 1578 1578 1579 1580 1579 1578 1582 1584 1584 1584 1583 1583 1584 1583 1583 1581 1580 1579 1577 1576 1575 1573
1481 1489 1497 1502 1507 1514 1519 1526 1533 1539 1543 1546 1550 1554 1557 1560 1564 1566 1569 1570 1571 1572 1573 1575 1574 1576 1575 1574 1577 1578 1578 1578 1579 1578 1578 1576 1576 1574 1574 1571 1571 1569 1568
1472 1481 1489 1495 1500 1506 1512 1520 1526 1532 1536 1539 1543 1547 1550 1553 1555 1558 1560 1563 1563 1564 1567 1569 1570 1570 1572 1570 1570 1573 1574 1573 1571 1571 1573 1570 1569 1569 1568 1566 1564 1564 1562
1466 1474 1482 1486 1492 1498 1505 1513 1520 1524 1528 1531 1535 1539 1542 1544 1548 1552 1552 1554 1556 1558 1560 1561 1564 1565 1565 1565 1565 1566 1567 1567 1566 1565 1566 1565 1563 1561 1561 1560 1558 1557 1556
1459 1468 1473 1478 1485 1491 1498 1506 1512 1515 1519 1523 1527 1529 1533 1535 1539 1543 1544 1547 1548 1549 1553 1555 1557 1558 1558 1559 1559 1560 1562 1561 1561 1560 1559 1559 1558 1557 1554 1552 1551 1551 1551
Wind_Speed
25 24 22 20 17 16 14 15 16 17 17 17 17 16 17 17 17 18 18 19 18 16 16 16 16 15 16 15 16 17 16 17 20 17 17 18 17 18 21 21 19 17 18
25 24 23 20 18 16 15 14 15 15 16 16 17 15 15 15 13 13 14 12 13 18 16 15 14 14 15 14 14 15 16 16 18 16 17 16 16 18 17 19 16 16 19
25 25 23 22 19 17 15 14 15 14 14 16 17 16 15 14 13 13 13 13 11 11 14 18 15 10 12 13 13 14 14 15 16 16 14 15 15 15 17 16 16 17 17
27 25 26 24 22 18 16 14 13 14 14 16 17 17 15 14 13 14 14 13 12 11 10 12 20 12 7 11 10 11 13 12 10 11 12 16 13 14 14 15 16 16 17
26 27 27 25 24 20 18 15 15 11 15 17 17 16 14 14 13 13 13 13 11 11 11 11 10 10 11 10 8 10 9 9 10 11 11 12 14 13 15 15 15 16 16
25 28 28 26 26 22 19 17 15 15 15 18 18 15 14 13 13 12 12 12 11 10 10 10 9 8 7 10 9 8 7 7 9 10 11 11 12 12 12 14 17 16 17
25 29 29 28 27 24 20 21 19 16 20 19 19 16 14 12 11 10 10 9 9 9 9 9 8 7 6 6 8 7 7 7 7 8 9 12 9 11 12 16 12 14 14
27 28 28 30 29 26 24 24 23 20 20 21 20 15 8 9 10 10 8 7 7 6 7 8 8 6 5 4 4 4 5 6 5 7 6 6 6 8 12 10 11 12 13
30 29 27 30 31 28 27 25 25 20 20 25 22 10 7 7 12 12 10 8 6 5 5 5 6 6 5 4 3 2 2 3 4 5 6 6 7 9 8 9 10 11 12
30 31 28 29 31 29 29 28 25 23 21 23 26 19 8 7 9 8 14 11 8 6 4 3 3 4 4 3 2 1 2 1 3 3 4 5 5 5 7 8 9 10 10
32 31 31 29 32 31 30 30 27 25 24 23 27 24 13 10 9 6 9 16 12 10 7 5 2 2 2 2 1 1 0 1 2 1 1 2 2 3 4 6 8 9 10
38 36 34 32 33 33 33 29 26 25 25 25 26 24 15 11 10 7 7 12 12 14 11 8 5 3 1 3 3 1 1 1 1 2 1 0 1 1 2 4 6 8 9
43 38 36 35 35 34 33 29 28 28 27 26 26 27 18 13 8 10 6 7 9 11 10 9 8 6 4 3 4 3 2 3 3 4 2 2 2 1 1 2 3 4 6
44 39 37 35 34 34 35 33 29 29 28 27 26 28 22 15 12 11 9 6 6 7 8 9 8 9 7 6 6 5 3 3 4 5 4 4 4 3 3 2 2 3 5
45 41 38 36 36 35 33 33 33 32 30 28 26 28 28 21 15 13 13 12 10 7 8 9 10 10 10 8 8 7 6 5 4 6 6 6 6 5 5 4 3 3 4
46 42 40 38 37 37 35 34 34 31 31 30 27 26 28 30 27 21 17 16 14 13 10 11 9 9 10 9 9 9 9 8 6 6 8 7 7 7 6 5 5 4 5
48 45 40 39 39 38 36 37 36 34 32 30 29 28 27 28 27 23 21 19 17 16 15 15 14 12 12 12 12 12 11 10 10 9 9 8 7 7 8 8 7 6 6
47 47 40 38 38 39 38 40 39 38 35 34 31 31 30 29 29 25 23 22 19 18 18 18 16 14 13 13 14 15 14 13 12 12 12 11 10 8 9 9 9 9 8
48 48 42 40 39 40 41 41 40 40 36 34 33 34 32 31 31 30 25 24 22 21 21 20 19 17 16 16 17 17 16 15 15 15 15 13 13 13 12 12 12 11 11
47 47 43 41 40 40 42 42 41 41 37 34 33 32 33 33 32 30 27 25 24 24 23 22 21 21 19 18 18 19 19 17 16 17 17 16 17 17 17 16 15 15 15
48 48 46 43 41 42 43 44 42 41 38 35 33 31 33 32 29 27 27 26 25 25 25 25 24 22 21 19 19 17 18 17 18 19 19 18 18 20 19 19 19 18 18
49 49 49 43 44 44 44 44 41 42 39 36 34 31 31 31 30 29 28 27 26 25 25 25 25 23 19 17 17 18 18 19 20 17 19 18 18 19 18 20 19 20 21
47 50 49 45 45 44 44 43 40 41 39 36 33 32 31 33 31 31 29 29 28 26 25 22 24 22 19 16 16 19 20 19 19 20 18 20 18 20 19 20 19 20 21
50 51 49 46 44 45 43 41 39 40 38 36 33 33 32 32 32 31 30 31 30 28 26 25 23 21 20 20 20 18 17 18 20 21 20 24 19 18 18 20 20 20 21
52 52 49 46 45 46 42 40 39 40 39 38 35 34 34 33 32 30 30 31 29 29 26 25 24 23 22 22 21 21 23 22 23 22 20 24 23 21 19 18 20 18 19
53 51 51 49 44 44 42 40 40 41 40 39 37 37 36 35 32 32 32 31 32 29 27 26 26 25 25 24 24 24 23 24 24 24 23 24 21 19 18 18 14 9 18
Wind_Direction
174 175 171 167 156 150 141 130 125 123 121 120 119 117 111 104 104 102 105 107 101 93 82 76 81 79 68 74 74 80 74 73 75 65 63 67 67 63 61 66 59 44 44
183 181 173 166 161 156 144 135 129 128 127 126 125 122 115 113 111 108 109 101 103 111 102 83 73 66 64 70 74 81 77 77 77 67 68 70 66 67 66 61 50 55 48
188 186 177 168 170 164 155 145 139 136 132 134 128 122 116 112 112 114 112 110 109 97 106 108 89 55 59 64 66 71 76 83 87 76 60 62 69 64 59 65 57 55 50
195 189 183 177 176 172 169 156 152 146 143 141 133 125 119 117 116 111 109 110 106 96 89 103 111 109 57 68 61 69 76 77 75 85 79 73 68 71 65 65 59 52 50
198 194 191 186 183 180 179 172 163 163 155 150 142 134 125 124 117 107 107 105 102 98 95 95 100 113 105 94 73 71 73 80 79 74 72 79 72 61 62 60 57 51 52
197 196 199 195 191 189 188 185 181 169 169 163 152 142 133 130 124 115 107 105 100 97 95 91 93 88 88 99 97 87 80 81 85 84 84 71 71 66 60 61 49 51 47
200 201 203 202 200 202 199 191 184 189 177 176 165 152 146 141 137 129 119 111 104 99 97 91 86 88 90 80 112 118 100 89 97 90 94 80 73 70 62 56 58 56 54
203 203 206 209 208 206 204 199 193 191 192 184 181 160 151 171 170 159 148 133 123 115 103 93 86 82 92 86 72 120 126 111 100 97 90 86 76 77 65 62 60 58 54
209 208 208 214 212 213 214 208 204 206 214 196 196 172 165 190 178 193 183 174 163 141 112 99 88 77 77 80 77 79 89 138 118 113 82 90 76 63 62 59 56 56 55
216 214 214 216 215 220 218 216 214 213 226 213 198 205 210 210 178 187 204 201 196 186 163 131 95 71 65 76 82 87 73 30 65 83 85 67 80 76 67 59 51 48 48
224 222 222 220 217 221 224 222 217 221 224 228 212 204 211 196 202 185 193 210 210 208 203 203 176 82 49 53 62 47 77 33 43 29 41 69 66 63 64 56 49 41 32
221 223 225 225 219 222 227 223 224 230 229 225 221 212 220 210 211 201 192 196 207 218 215 216 218 235 323 5 352 317 243 269 287 272 267 276 5 27 37 46 42 36 27
222 221 223 223 223 221 226 224 224 228 230 224 219 218 217 222 231 210 210 196 205 217 220 229 233 238 257 299 301 296 252 247 267 263 255 247 255 281 314 27 31 29 26
222 222 222 223 225 226 223 222 225 227 229 223 219 219 222 222 221 224 234 230 221 227 232 239 240 238 243 260 282 298 274 252 261 262 254 251 249 260 269 292 329 355 13
226 224 222 224 225 227 221 221 225 224 224 222 220 220 223 223 224 236 237 241 249 245 264 257 245 239 240 252 269 280 277 272 278 270 256 250 249 253 262 272 285 312 341
229 225 223 226 226 225 219 218 222 221 221 221 222 223 224 228 238 248 243 239 241 248 256 260 244 240 241 249 263 271 270 273 270 270 260 255 253 253 258 267 280 298 313
229 225 226 228 227 223 219 218 221 219 220 220 224 227 229 231 237 240 241 242 242 249 255 262 243 241 246 252 257 262 265 267 267 269 266 266 265 261 266 273 278 288 300
230 223 226 228 227 224 222 219 221 220 221 223 224 231 232 233 233 235 239 242 246 252 257 257 246 241 250 254 253 255 258 261 262 266 269 271 270 271 270 271 273 271 281
221 222 224 226 226 225 224 221 222 222 223 226 228 234 235 235 234 233 238 240 245 253 255 251 246 244 249 251 252 251 256 259 261 263 269 274 274 271 274 275 272 272 276
219 222 225 226 228 227 224 221 223 222 224 228 231 235 236 236 236 236 239 244 250 254 252 245 242 245 253 251 249 245 249 255 261 261 266 271 274 277 278 278 275 273 273
223 223 225 226 228 227 224 220 222 222 224 227 231 234 235 235 236 239 242 246 250 250 246 242 238 240 247 249 251 252 248 252 256 259 264 269 275 276 278 276 275 275 273
227 223 223 226 227 227 224 221 223 221 223 227 230 233 234 233 234 238 242 244 247 246 243 242 242 242 244 249 251 250 246 245 254 264 265 269 271 275 278 275 276 272 271
226 224 224 226 226 226 223 219 221 223 225 227 231 232 234 233 233 237 239 242 244 240 238 240 246 248 247 243 248 245 245 249 258 263 266 269 271 278 282 279 276 274 274
229 224 223 225 225 224 221 219 218 222 225 229 233 234 236 234 234 237 239 243 243 239 238 238 242 242 242 240 242 245 246 246 249 258 261 270 277 281 283 283 280 277 275
229 222 220 224 222 223 219 218 217 221 225 229 231 233 234 235 236 238 240 242 241 241 239 240 240 240 241 243 243 243 244 247 254 260 264 269 279 286 283 283 285 280 278
222 217 219 220 222 223 219 218 217 222 226 228 229 231 233 233 233 234 236 237 238 237 239 240 240 240 240 242 243 245 247 252 255 262 264 265 275 279 288 287 281 278 290